Weather History for Easton, MD

Change the Weather History Date:

Friday, October 5, 2012

  Actual Average Record
Temperature  
Mean Temperature 70 °F -  
Max Temperature 82 °F 75 °F 91 °F (1959)
Min Temperature 57 °F 51 °F 35 °F (1961)
Cooling Degree Days 4    
Growing Degree Days 20 (Base 50)    
Moisture  
Dew Point 60 °F    
Average Humidity 85    
Maximum Humidity 100    
Minimum Humidity 42    
Precipitation  
Precipitation 0.00 in - - ()
Sea Level Pressure  
Sea Level Pressure 30.12 in    
Wind  
Wind Speed 1 mph (West)    
Max Wind Speed 9 mph    
Max Gust Speed -    
Visibility 9 miles    
Events      
Averages and records for this station are not official NWS values.
T = Trace of Precipitation, MM = Missing Value Source: NWS Daily Summary

Daily Weather History Graph

Daily Weather History Graph

Search for Another Location

Airport:

Trip Planner

Search our weather history database for the weather conditions in past years. The results will help you decide how hot, cold, wet, or windy it might be!

Date:

Astronomy

Oct. 05, 2012 Rise Set
Actual Time 7:04 AM EDT 6:40 PM EDT
Civil Twilight 6:37 AM EDT 7:06 PM EDT
Nautical Twilight 6:06 AM EDT 7:37 PM EDT
Astronomical Twilight 5:35 AM EDT 8:08 PM EDT
Moon 10:04 PM EDT (10/5) 12:07 PM EDT (10/5)
Length of Visible Light 12h 28m
Length of Day
11h 35m
Waning Gibbous, 74% of the Moon is Illuminated
Oct 5
Waning Gibbous
Oct 8
Last Quarter
Oct 15
New
Oct 21
First Quarter
Oct 29
Full

Hourly Weather History & Observations

Time (EDT) Temp. Heat Index Dew Point Humidity Pressure Visibility Wind Dir Wind Speed Gust Speed Precip Events Conditions
12:04 AM 62.1 °F - 62.1 °F 100% 30.15 in 5.0 mi Calm Calm - N/A   Clear
12:25 AM 62.4 °F - 62.4 °F 100% 30.15 in 4.0 mi Calm Calm - N/A   Clear
12:46 AM 61.9 °F - 61.9 °F 100% 30.15 in 7.0 mi Calm Calm - N/A   Clear
1:08 AM 60.6 °F - 60.6 °F 100% 30.15 in 10.0 mi Calm Calm - N/A   Clear
1:29 AM 61.0 °F - 61.0 °F 100% 30.15 in 1.2 mi Calm Calm - N/A   Mist
1:50 AM 61.0 °F - 61.0 °F 100% 30.16 in 10.0 mi Calm Calm - N/A   Clear
2:11 AM 60.6 °F - 60.6 °F 100% 30.16 in 7.0 mi Calm Calm - N/A   Clear
2:12 AM 60.4 °F - 60.4 °F 100% 30.15 in 7.0 mi Calm Calm - N/A   Clear
2:33 AM 59.9 °F - 59.9 °F 100% 30.15 in 7.0 mi Calm Calm - N/A   Clear
2:54 AM 59.5 °F - 59.5 °F 100% 30.15 in 5.0 mi Calm Calm - N/A   Clear
3:15 AM 59.2 °F - 59.2 °F 100% 30.14 in 3.0 mi Calm Calm - N/A   Clear
3:37 AM 59.0 °F - 59.0 °F 100% 30.14 in 5.0 mi Calm Calm - N/A   Clear
3:58 AM 58.1 °F - 58.1 °F 100% 30.15 in 10.0 mi Calm Calm - N/A   Clear
4:19 AM 58.3 °F - 58.3 °F 100% 30.14 in 7.0 mi Calm Calm - N/A   Clear
4:41 AM 57.2 °F - 57.2 °F 100% 30.15 in 10.0 mi Calm Calm - N/A   Clear
5:02 AM 58.5 °F - 58.5 °F 100% 30.15 in 10.0 mi Calm Calm - N/A   Clear
5:23 AM 59.0 °F - 59.0 °F 100% 30.16 in 10.0 mi Calm Calm - N/A   Clear
5:45 AM 59.0 °F - 59.0 °F 100% 30.16 in 10.0 mi NW 3.5 mph - N/A   Clear
5:53 AM 57.2 °F - 57.2 °F 100% 30.16 in 10.0 mi Calm Calm - N/A   Clear
6:06 AM 57.4 °F - 57.4 °F 100% 30.16 in 10.0 mi Calm Calm - N/A   Clear
6:13 AM 57.2 °F - 57.2 °F 100% 30.16 in 10.0 mi Calm Calm - N/A   Clear
6:53 AM 57.2 °F - 57.2 °F 100% 30.16 in 10.0 mi Calm Calm - N/A   Clear
7:53 AM 64.4 °F - 59.0 °F 83% 30.15 in 10.0 mi Calm Calm - N/A   Clear
8:53 AM 71.6 °F - 62.6 °F 73% 30.15 in 10.0 mi Calm Calm - N/A   Clear
9:55 AM 73.4 °F - 60.8 °F 65% 30.17 in 10.0 mi NW 8.1 mph - N/A   Clear
10:50 AM 75.2 °F - 60.8 °F 61% 30.16 in 10.0 mi NNW 5.8 mph - N/A   Clear
11:47 AM 77.0 °F - 59.0 °F 54% 30.15 in 10.0 mi NNW 6.9 mph - N/A   Clear
12:45 PM 78.8 °F - 60.8 °F 54% 30.13 in 10.0 mi NNW 6.9 mph - N/A   Partly Cloudy
1:46 PM 80.6 °F 81.1 °F 59.0 °F 48% 30.09 in 10.0 mi WNW 9.2 mph - N/A   Scattered Clouds
2:50 PM 82.4 °F 82.0 °F 57.2 °F 42% 30.07 in 10.0 mi WSW 5.8 mph - N/A   Scattered Clouds
3:51 PM 80.6 °F 80.8 °F 57.2 °F 45% 30.05 in 10.0 mi West 4.6 mph - N/A   Partly Cloudy
4:52 PM 80.6 °F 80.8 °F 57.2 °F 45% 30.05 in 10.0 mi WSW 3.5 mph - N/A   Clear
5:50 PM 77.0 °F - 57.2 °F 50% 30.05 in 10.0 mi SW 4.6 mph - N/A   Clear
6:47 PM 71.6 °F - 59.0 °F 64% 30.04 in 10.0 mi SW 6.9 mph - N/A   Clear
7:51 PM 68.0 °F - 59.0 °F 73% 30.04 in 10.0 mi Calm Calm - N/A   Clear
8:54 PM 66.2 °F - 59.0 °F 78% 30.04 in 10.0 mi Calm Calm - N/A   Clear
10:24 PM 65.5 °F - 60.8 °F 85% 30.03 in 10.0 mi South 4.6 mph - N/A   Clear
10:45 PM 65.1 °F - 61.3 °F 88% 30.03 in 10.0 mi SSW 4.6 mph - N/A   Clear
11:07 PM 64.4 °F - 61.5 °F 90% 30.03 in 10.0 mi SW 4.6 mph - N/A   Clear
11:28 PM 64.0 °F - 61.7 °F 92% 30.02 in 10.0 mi SSW 3.5 mph - N/A   Clear
11:49 PM 64.4 °F - 60.8 °F 88% 30.01 in 10.0 mi Calm Calm - N/A   Clear